Saint Bonnet de Bellac- Haute Vienne - France
Donnes mto: dimanche, 26/08/2012
Date Horaire Temp. E. Hum. E. P.atmo. Pluie Vent Direction Direction Ensoleilleme Solaire P. de rose Temp au vent Rafales
26/08/2012 00:00 15,8 C 76 % 1018,3 hPa 0,0 mm 2,5 km/h (1 Bft) S-SO 202 0 min 0 W/m 11,6 C 15,8 C 6,8 km/h (2 Bft)
26/08/2012 00:10 15,6 C 77 % 1018,3 hPa 0,0 mm 3,2 km/h (1 Bft) S-SO 202 0 min 0 W/m 11,6 C 15,6 C 4,0 km/h (1 Bft)
26/08/2012 00:20 15,3 C 78 % 1018,3 hPa 0,0 mm 4,0 km/h (1 Bft) O-SO 247 0 min 0 W/m 11,5 C 15,3 C 4,0 km/h (1 Bft)
26/08/2012 00:30 14,9 C 79 % 1018,4 hPa 0,0 mm 4,0 km/h (1 Bft) S-SO 202 0 min 0 W/m 11,3 C 14,9 C 8,3 km/h (2 Bft)
26/08/2012 00:40 14,6 C 81 % 1018,5 hPa 0,0 mm 2,5 km/h (1 Bft) O-SO 247 0 min 0 W/m 11,4 C 14,6 C 4,3 km/h (1 Bft)
26/08/2012 00:50 14,3 C 83 % 1018,5 hPa 0,0 mm 1,8 km/h (1 Bft) S-SO 202 0 min 0 W/m 11,5 C 14,3 C 3,6 km/h (1 Bft)
26/08/2012 01:00 14,3 C 84 % 1018,6 hPa 0,0 mm 3,6 km/h (1 Bft) SO 225 0 min 0 W/m 11,6 C 14,3 C 3,6 km/h (1 Bft)
26/08/2012 01:10 14,3 C 85 % 1018,7 hPa 0,0 mm 5,8 km/h (2 Bft) O 270 0 min 0 W/m 11,8 C 14,3 C 8,6 km/h (2 Bft)
26/08/2012 01:20 14,4 C 85 % 1018,8 hPa 0,0 mm 5,4 km/h (2 Bft) S-SO 202 0 min 0 W/m 11,9 C 14,4 C 7,9 km/h (2 Bft)
26/08/2012 01:30 14,6 C 84 % 1018,8 hPa 0,0 mm 3,6 km/h (1 Bft) O-SO 247 0 min 0 W/m 11,9 C 14,6 C 4,0 km/h (1 Bft)
26/08/2012 01:40 14,6 C 84 % 1018,9 hPa 0,0 mm 3,2 km/h (1 Bft) S 180 0 min 0 W/m 11,9 C 14,6 C 7,9 km/h (2 Bft)
26/08/2012 01:50 14,6 C 84 % 1018,9 hPa 0,0 mm 0,0 km/h (0 Bft) SO 225 0 min 0 W/m 11,9 C 14,6 C 0,0 km/h (0 Bft)
26/08/2012 02:00 14,5 C 85 % 1019,1 hPa 0,0 mm 3,2 km/h (1 Bft) S-SO 202 0 min 0 W/m 12,0 C 14,5 C 4,7 km/h (1 Bft)
26/08/2012 02:10 14,4 C 85 % 1019,0 hPa 0,0 mm 2,2 km/h (1 Bft) O 270 0 min 0 W/m 11,9 C 14,4 C 4,0 km/h (1 Bft)
26/08/2012 02:20 14,3 C 85 % 1018,9 hPa 0,0 mm 1,8 km/h (1 Bft) O-SO 247 0 min 0 W/m 11,8 C 14,3 C 6,1 km/h (2 Bft)
26/08/2012 02:30 14,1 C 85 % 1019,0 hPa 0,0 mm 1,1 km/h (1 Bft) S-SO 202 0 min 0 W/m 11,6 C 14,1 C 4,3 km/h (1 Bft)
26/08/2012 02:40 13,9 C 85 % 1019,2 hPa 0,0 mm 0,0 km/h (0 Bft) O-SO 247 0 min 0 W/m 11,4 C 13,9 C 0,0 km/h (0 Bft)
26/08/2012 02:50 13,8 C 87 % 1019,2 hPa 0,0 mm 0,7 km/h (0 Bft) S-SO 202 0 min 0 W/m 11,7 C 13,8 C 3,6 km/h (1 Bft)
26/08/2012 03:02 13,8 C 87 % 1019,3 hPa 0,0 mm 0,0 km/h (0 Bft) O 270 0 min 0 W/m 11,7 C 13,8 C 0,0 km/h (0 Bft)
26/08/2012 03:10 13,8 C 88 % 1019,3 hPa 0,0 mm 0,7 km/h (0 Bft) SO 225 0 min 0 W/m 11,8 C 13,8 C 4,0 km/h (1 Bft)
26/08/2012 03:20 13,9 C 88 % 1019,3 hPa 0,0 mm 1,4 km/h (1 Bft) SO 225 0 min 0 W/m 11,9 C 13,9 C 4,3 km/h (1 Bft)
26/08/2012 03:30 13,9 C 88 % 1019,4 hPa 0,0 mm 2,5 km/h (1 Bft) SO 225 0 min 0 W/m 11,9 C 13,9 C 4,3 km/h (1 Bft)
26/08/2012 03:40 14,0 C 88 % 1019,4 hPa 0,0 mm 4,3 km/h (1 Bft) SO 225 0 min 0 W/m 12,0 C 14,0 C 7,6 km/h (2 Bft)
26/08/2012 03:50 14,1 C 88 % 1019,4 hPa 0,0 mm 4,7 km/h (1 Bft) S-SO 202 0 min 0 W/m 12,1 C 14,1 C 4,7 km/h (1 Bft)
26/08/2012 04:00 14,1 C 87 % 1019,6 hPa 0,0 mm 6,8 km/h (2 Bft) O-SO 247 0 min 0 W/m 12,0 C 14,1 C 8,3 km/h (2 Bft)
26/08/2012 04:10 14,1 C 86 % 1019,6 hPa 0,0 mm 0,4 km/h (0 Bft) S-SO 202 0 min 0 W/m 11,8 C 14,1 C 3,2 km/h (1 Bft)
26/08/2012 04:20 14,0 C 86 % 1019,7 hPa 0,0 mm 0,7 km/h (0 Bft) O 270 0 min 0 W/m 11,7 C 14,0 C 2,9 km/h (1 Bft)
26/08/2012 04:30 13,9 C 86 % 1019,8 hPa 0,0 mm 0,4 km/h (0 Bft) SO 225 0 min 0 W/m 11,6 C 13,9 C 0,4 km/h (0 Bft)
26/08/2012 04:40 13,8 C 86 % 1019,8 hPa 0,0 mm 2,2 km/h (1 Bft) SO 225 0 min 0 W/m 11,5 C 13,8 C 4,0 km/h (1 Bft)
26/08/2012 04:50 13,5 C 87 % 1019,7 hPa 0,0 mm 2,5 km/h (1 Bft) S-SO 202 0 min 0 W/m 11,4 C 13,5 C 4,3 km/h (1 Bft)
26/08/2012 05:00 13,2 C 87 % 1019,7 hPa 0,0 mm 2,2 km/h (1 Bft) SO 225 0 min 0 W/m 11,1 C 13,2 C 4,0 km/h (1 Bft)
26/08/2012 05:10 12,9 C 88 % 1019,8 hPa 0,0 mm 2,2 km/h (1 Bft) SO 225 0 min 0 W/m 11,0 C 12,9 C 2,2 km/h (1 Bft)
26/08/2012 05:20 12,7 C 88 % 1019,7 hPa 0,0 mm 1,1 km/h (1 Bft) SO 225 0 min 0 W/m 10,8 C 12,7 C 3,2 km/h (1 Bft)
26/08/2012 05:30 12,5 C 88 % 1019,7 hPa 0,0 mm 0,4 km/h (0 Bft) SO 225 0 min 0 W/m 10,6 C 12,5 C 3,2 km/h (1 Bft)
26/08/2012 05:40 12,4 C 89 % 1019,7 hPa 0,0 mm 0,4 km/h (0 Bft) S-SO 202 0 min 0 W/m 10,6 C 12,4 C 3,2 km/h (1 Bft)
26/08/2012 05:50 12,3 C 90 % 1019,8 hPa 0,0 mm 1,1 km/h (1 Bft) SO 225 0 min 0 W/m 10,7 C 12,3 C 2,9 km/h (1 Bft)
26/08/2012 06:00 12,2 C 90 % 1019,9 hPa 0,0 mm 0,0 km/h (0 Bft) SO 225 0 min 0 W/m 10,6 C 12,2 C 0,0 km/h (0 Bft)
26/08/2012 06:10 12,1 C 90 % 1019,9 hPa 0,0 mm 0,4 km/h (0 Bft) SO 225 0 min 0 W/m 10,5 C 12,1 C 0,4 km/h (0 Bft)
26/08/2012 06:20 12,0 C 90 % 1019,9 hPa 0,0 mm 0,0 km/h (0 Bft) SO 225 0 min 0 W/m 10,4 C 12,0 C 1,4 km/h (1 Bft)
26/08/2012 06:30 11,9 C 90 % 1020,0 hPa 0,0 mm 2,9 km/h (1 Bft) SO 225 0 min 0 W/m 10,3 C 11,9 C 2,9 km/h (1 Bft)
26/08/2012 06:40 11,9 C 91 % 1020,0 hPa 0,0 mm 2,2 km/h (1 Bft) SO 225 0 min 0 W/m 10,5 C 11,9 C 4,0 km/h (1 Bft)
26/08/2012 06:50 11,8 C 91 % 1019,9 hPa 0,0 mm 1,4 km/h (1 Bft) SO 225 0 min 0 W/m 10,4 C 11,8 C 4,3 km/h (1 Bft)
26/08/2012 07:00 11,8 C 91 % 1020,1 hPa 0,0 mm 2,5 km/h (1 Bft) SO 225 0 min 0 W/m 10,4 C 11,8 C 3,6 km/h (1 Bft)
26/08/2012 07:10 11,8 C 91 % 1020,2 hPa 0,0 mm 0,7 km/h (0 Bft) SO 225 0 min 0 W/m 10,4 C 11,8 C 0,7 km/h (0 Bft)
26/08/2012 07:20 11,8 C 92 % 1020,2 hPa 0,0 mm 2,2 km/h (1 Bft) SO 225 0 min 0 W/m 10,5 C 11,8 C 4,0 km/h (1 Bft)
26/08/2012 07:30 11,8 C 92 % 1020,4 hPa 0,0 mm 0,4 km/h (0 Bft) SO 225 0 min 0 W/m 10,5 C 11,8 C 0,4 km/h (0 Bft)
26/08/2012 07:40 11,8 C 92 % 1020,5 hPa 0,0 mm 0,0 km/h (0 Bft) S-SO 202 0 min 0 W/m 10,5 C 11,8 C 0,0 km/h (0 Bft)
26/08/2012 07:50 11,9 C 92 % 1020,6 hPa 0,0 mm 1,1 km/h (1 Bft) S-SO 202 0 min 0 W/m 10,6 C 11,9 C 3,6 km/h (1 Bft)
26/08/2012 08:00 11,9 C 92 % 1020,7 hPa 0,0 mm 0,0 km/h (0 Bft) SO 225 0 min 0 W/m 10,6 C 11,9 C 3,2 km/h (1 Bft)
26/08/2012 08:10 12,1 C 92 % 1020,7 hPa 0,0 mm 2,5 km/h (1 Bft) O-SO 247 0 min 0 W/m 10,8 C 12,1 C 2,5 km/h (1 Bft)
26/08/2012 08:20 12,2 C 92 % 1020,9 hPa 0,0 mm 0,4 km/h (0 Bft) O-SO 247 0 min 0 W/m 10,9 C 12,2 C 3,2 km/h (1 Bft)
26/08/2012 08:30 12,5 C 92 % 1021,0 hPa 0,0 mm 2,2 km/h (1 Bft) SO 225 0 min 0 W/m 11,2 C 12,5 C 4,0 km/h (1 Bft)
26/08/2012 08:40 12,8 C 92 % 1021,0 hPa 0,0 mm 0,7 km/h (0 Bft) SO 225 0 min 0 W/m 11,5 C 12,8 C 2,9 km/h (1 Bft)
26/08/2012 08:50 12,9 C 92 % 1021,1 hPa 0,0 mm 1,8 km/h (1 Bft) SO 225 0 min 0 W/m 11,6 C 12,9 C 4,3 km/h (1 Bft)
26/08/2012 09:00 13,6 C 93 % 1021,2 hPa 0,0 mm 3,6 km/h (1 Bft) S-SO 202 0 min 0 W/m 12,5 C 13,6 C 7,6 km/h (2 Bft)
26/08/2012 09:10 14,3 C 91 % 1021,3 hPa 0,0 mm 5,8 km/h (2 Bft) S-SO 202 0 min 0 W/m 12,8 C 14,3 C 10,8 km/h (2 Bft)
26/08/2012 09:20 15,1 C 88 % 1021,5 hPa 0,0 mm 2,2 km/h (1 Bft) SO 225 0 min 0 W/m 13,1 C 15,1 C 3,2 km/h (1 Bft)
26/08/2012 09:30 15,6 C 85 % 1021,7 hPa 0,0 mm 4,7 km/h (1 Bft) O-SO 247 0 min 0 W/m 13,1 C 15,6 C 4,7 km/h (1 Bft)
26/08/2012 09:40 16,3 C 82 % 1021,7 hPa 0,0 mm 3,6 km/h (1 Bft) SO 225 0 min 0 W/m 13,2 C 16,3 C 7,6 km/h (2 Bft)
26/08/2012 09:50 16,9 C 79 % 1021,9 hPa 0,0 mm 3,2 km/h (1 Bft) SO 225 0 min 0 W/m 13,2 C 16,9 C 4,0 km/h (1 Bft)
26/08/2012 10:00 17,6 C 78 % 1021,9 hPa 0,0 mm 0,4 km/h (0 Bft) S-SO 202 0 min 0 W/m 13,7 C 17,6 C 0,4 km/h (0 Bft)
26/08/2012 10:10 18,1 C 75 % 1021,9 hPa 0,0 mm 3,2 km/h (1 Bft) SO 225 0 min 0 W/m 13,6 C 18,1 C 6,1 km/h (2 Bft)
26/08/2012 10:20 18,3 C 73 % 1021,9 hPa 0,0 mm 2,5 km/h (1 Bft) NO 315 0 min 0 W/m 13,4 C 18,3 C 4,3 km/h (1 Bft)
26/08/2012 10:30 18,6 C 71 % 1022,0 hPa 0,0 mm 1,4 km/h (1 Bft) O-NO 292 0 min 0 W/m 13,2 C 18,6 C 6,1 km/h (2 Bft)
26/08/2012 10:40 19,2 C 67 % 1022,2 hPa 0,0 mm 0,4 km/h (0 Bft) O-SO 247 0 min 0 W/m 12,9 C 19,2 C 13,0 km/h (3 Bft)
26/08/2012 10:50 19,0 C 66 % 1022,2 hPa 0,0 mm 2,9 km/h (1 Bft) O-SO 247 0 min 0 W/m 12,5 C 19,0 C 3,6 km/h (1 Bft)
26/08/2012 11:00 19,1 C 65 % 1022,3 hPa 0,0 mm 2,5 km/h (1 Bft) O-SO 247 0 min 0 W/m 12,4 C 19,1 C 2,5 km/h (1 Bft)
26/08/2012 11:10 19,8 C 64 % 1022,4 hPa 0,0 mm 0,4 km/h (0 Bft) O-SO 247 0 min 0 W/m 12,8 C 19,8 C 3,2 km/h (1 Bft)
26/08/2012 11:20 20,3 C 63 % 1022,4 hPa 0,0 mm 2,5 km/h (1 Bft) S 180 0 min 0 W/m 13,0 C 20,3 C 9,4 km/h (2 Bft)
26/08/2012 11:30 19,9 C 62 % 1022,4 hPa 0,0 mm 1,8 km/h (1 Bft) O-SO 247 0 min 0 W/m 12,4 C 19,9 C 1,8 km/h (1 Bft)
26/08/2012 11:40 20,3 C 59 % 1022,4 hPa 0,0 mm 2,5 km/h (1 Bft) SO 225 0 min 0 W/m 12,0 C 20,3 C 2,5 km/h (1 Bft)
26/08/2012 11:50 20,4 C 58 % 1022,3 hPa 0,0 mm 6,1 km/h (2 Bft) S-SO 202 0 min 0 W/m 11,9 C 20,4 C 6,1 km/h (2 Bft)
26/08/2012 12:00 20,9 C 59 % 1022,4 hPa 0,0 mm 2,2 km/h (1 Bft) N-NE 22 0 min 0 W/m 12,6 C 20,9 C 3,2 km/h (1 Bft)
26/08/2012 12:10 21,4 C 55 % 1022,5 hPa 0,0 mm 7,6 km/h (2 Bft) O 270 0 min 0 W/m 12,0 C 21,4 C 15,5 km/h (3 Bft)
26/08/2012 12:20 21,2 C 54 % 1022,5 hPa 0,0 mm 3,2 km/h (1 Bft) SO 225 0 min 0 W/m 11,5 C 21,2 C 9,4 km/h (2 Bft)
26/08/2012 12:30 20,9 C 57 % 1022,5 hPa 0,0 mm 1,1 km/h (1 Bft) O-SO 247 0 min 0 W/m 12,1 C 20,9 C 4,3 km/h (1 Bft)
26/08/2012 12:40 21,3 C 55 % 1022,5 hPa 0,0 mm 0,7 km/h (0 Bft) O-SO 247 0 min 0 W/m 11,9 C 21,3 C 0,7 km/h (0 Bft)
26/08/2012 12:50 21,2 C 55 % 1022,5 hPa 0,0 mm 1,4 km/h (1 Bft) O 270 0 min 0 W/m 11,8 C 21,2 C 7,2 km/h (2 Bft)
26/08/2012 13:00 21,3 C 54 % 1022,4 hPa 0,0 mm 0,7 km/h (0 Bft) O-SO 247 0 min 0 W/m 11,6 C 21,3 C 3,2 km/h (1 Bft)
26/08/2012 13:10 21,8 C 51 % 1022,4 hPa 0,0 mm 3,2 km/h (1 Bft) SO 225 0 min 0 W/m 11,2 C 21,8 C 4,3 km/h (1 Bft)
26/08/2012 13:20 22,1 C 51 % 1022,3 hPa 0,0 mm 5,4 km/h (2 Bft) SO 225 0 min 0 W/m 11,5 C 22,1 C 9,4 km/h (2 Bft)
26/08/2012 13:30 21,8 C 51 % 1022,2 hPa 0,0 mm 0,4 km/h (0 Bft) N-NE 22 0 min 0 W/m 11,2 C 21,8 C 4,3 km/h (1 Bft)
26/08/2012 13:40 22,1 C 50 % 1022,1 hPa 0,0 mm 6,1 km/h (2 Bft) O-NO 292 0 min 0 W/m 11,2 C 22,1 C 6,1 km/h (2 Bft)
26/08/2012 13:50 21,9 C 50 % 1022,1 hPa 0,0 mm 3,6 km/h (1 Bft) O-SO 247 0 min 0 W/m 11,0 C 21,9 C 6,8 km/h (2 Bft)
26/08/2012 14:00 22,4 C 48 % 1021,9 hPa 0,0 mm 3,2 km/h (1 Bft) S-SE 157 0 min 0 W/m 10,8 C 22,4 C 9,0 km/h (2 Bft)
26/08/2012 14:10 22,4 C 47 % 1021,9 hPa 0,0 mm 2,2 km/h (1 Bft) O-NO 292 0 min 0 W/m 10,5 C 22,4 C 9,7 km/h (2 Bft)
26/08/2012 14:20 22,4 C 47 % 1021,9 hPa 0,0 mm 1,4 km/h (1 Bft) O-SO 247 0 min 0 W/m 10,5 C 22,4 C 3,2 km/h (1 Bft)
26/08/2012 14:30 22,4 C 47 % 1021,9 hPa 0,0 mm 2,5 km/h (1 Bft) S-SO 202 0 min 0 W/m 10,5 C 22,4 C 4,3 km/h (1 Bft)
26/08/2012 14:40 22,8 C 48 % 1021,9 hPa 0,0 mm 0,4 km/h (0 Bft) N-NO 337 0 min 0 W/m 11,2 C 22,8 C 0,4 km/h (0 Bft)
26/08/2012 14:50 23,5 C 45 % 1021,7 hPa 0,0 mm 2,5 km/h (1 Bft) N 360 0 min 0 W/m 10,9 C 23,5 C 8,6 km/h (2 Bft)
26/08/2012 15:00 24,0 C 43 % 1021,6 hPa 0,0 mm 1,8 km/h (1 Bft) O-SO 247 0 min 0 W/m 10,6 C 24,0 C 3,6 km/h (1 Bft)
26/08/2012 15:10 23,9 C 44 % 1021,6 hPa 0,0 mm 0,0 km/h (0 Bft) O-SO 247 0 min 0 W/m 10,9 C 23,9 C 3,2 km/h (1 Bft)
26/08/2012 15:20 24,1 C 43 % 1021,6 hPa 0,0 mm 5,0 km/h (1 Bft) NE 45 0 min 0 W/m 10,7 C 24,1 C 5,0 km/h (1 Bft)
26/08/2012 15:30 24,1 C 42 % 1021,6 hPa 0,0 mm 3,2 km/h (1 Bft) S-SO 202 0 min 0 W/m 10,4 C 24,1 C 6,5 km/h (2 Bft)
26/08/2012 15:40 24,1 C 41 % 1021,4 hPa 0,0 mm 5,8 km/h (2 Bft) O-SO 247 0 min 0 W/m 10,0 C 24,1 C 5,8 km/h (2 Bft)
26/08/2012 15:50 23,8 C 42 % 1021,4 hPa 0,0 mm 1,4 km/h (1 Bft) O-SO 247 0 min 0 W/m 10,1 C 23,8 C 1,4 km/h (1 Bft)
26/08/2012 16:00 23,7 C 43 % 1021,2 hPa 0,0 mm 2,9 km/h (1 Bft) N-NO 337 0 min 0 W/m 10,4 C 23,7 C 6,1 km/h (2 Bft)
26/08/2012 16:10 23,6 C 42 % 1021,1 hPa 0,0 mm 1,8 km/h (1 Bft) N-NO 337 0 min 0 W/m 9,9 C 23,6 C 7,2 km/h (2 Bft)
26/08/2012 16:20 23,6 C 42 % 1021,2 hPa 0,0 mm 2,5 km/h (1 Bft) O-SO 247 0 min 0 W/m 9,9 C 23,6 C 6,5 km/h (2 Bft)
26/08/2012 16:30 23,5 C 41 % 1021,2 hPa 0,0 mm 4,0 km/h (1 Bft) O-NO 292 0 min 0 W/m 9,5 C 23,5 C 4,0 km/h (1 Bft)
26/08/2012 16:40 23,8 C 41 % 1021,2 hPa 0,0 mm 2,2 km/h (1 Bft) O-NO 292 0 min 0 W/m 9,7 C 23,8 C 2,2 km/h (1 Bft)
26/08/2012 16:50 23,8 C 41 % 1021,0 hPa 0,0 mm 0,0 km/h (0 Bft) O-SO 247 0 min 0 W/m 9,7 C 23,8 C 2,9 km/h (1 Bft)
26/08/2012 17:00 24,2 C 41 % 1020,9 hPa 0,0 mm 3,6 km/h (1 Bft) O-NO 292 0 min 0 W/m 10,1 C 24,2 C 7,2 km/h (2 Bft)
26/08/2012 17:10 24,3 C 40 % 1021,1 hPa 0,0 mm 2,2 km/h (1 Bft) O 270 0 min 0 W/m 9,8 C 24,3 C 2,9 km/h (1 Bft)
26/08/2012 17:20 24,2 C 41 % 1021,1 hPa 0,0 mm 4,0 km/h (1 Bft) NO 315 0 min 0 W/m 10,1 C 24,2 C 4,3 km/h (1 Bft)
26/08/2012 17:30 23,9 C 41 % 1020,9 hPa 0,0 mm 1,1 km/h (1 Bft) O-NO 292 0 min 0 W/m 9,8 C 23,9 C 3,6 km/h (1 Bft)
26/08/2012 17:40 23,8 C 41 % 1020,8 hPa 0,0 mm 1,4 km/h (1 Bft) N-NO 337 0 min 0 W/m 9,7 C 23,8 C 4,0 km/h (1 Bft)
26/08/2012 17:50 23,6 C 42 % 1020,8 hPa 0,0 mm 1,4 km/h (1 Bft) N-NE 22 0 min 0 W/m 9,9 C 23,6 C 4,3 km/h (1 Bft)
26/08/2012 18:00 23,9 C 41 % 1020,8 hPa 0,0 mm 4,0 km/h (1 Bft) O 270 0 min 0 W/m 9,8 C 23,9 C 6,5 km/h (2 Bft)
26/08/2012 18:10 24,4 C 40 % 1020,8 hPa 0,0 mm 0,0 km/h (0 Bft) O 270 0 min 0 W/m 9,9 C 24,4 C 0,0 km/h (0 Bft)
26/08/2012 18:20 24,8 C 39 % 1020,7 hPa 0,0 mm 2,5 km/h (1 Bft) O 270 0 min 0 W/m 9,9 C 24,8 C 6,1 km/h (2 Bft)
26/08/2012 18:30 24,8 C 39 % 1020,6 hPa 0,0 mm 0,0 km/h (0 Bft) O-NO 292 0 min 0 W/m 9,9 C 24,8 C 0,0 km/h (0 Bft)
26/08/2012 18:40 24,8 C 39 % 1020,5 hPa 0,0 mm 1,4 km/h (1 Bft) N-NO 337 0 min 0 W/m 9,9 C 24,8 C 1,4 km/h (1 Bft)
26/08/2012 18:50 24,9 C 39 % 1020,5 hPa 0,0 mm 2,2 km/h (1 Bft) N-NO 337 0 min 0 W/m 10,0 C 24,9 C 3,6 km/h (1 Bft)
26/08/2012 19:00 24,8 C 39 % 1020,4 hPa 0,0 mm 1,1 km/h (1 Bft) N-NO 337 0 min 0 W/m 9,9 C 24,8 C 6,5 km/h (2 Bft)
26/08/2012 19:10 24,8 C 39 % 1020,4 hPa 0,0 mm 2,2 km/h (1 Bft) N 360 0 min 0 W/m 9,9 C 24,8 C 3,6 km/h (1 Bft)
26/08/2012 19:20 24,6 C 40 % 1020,3 hPa 0,0 mm 0,0 km/h (0 Bft) NO 315 0 min 0 W/m 10,1 C 24,6 C 0,0 km/h (0 Bft)
26/08/2012 19:30 24,5 C 40 % 1020,4 hPa 0,0 mm 0,0 km/h (0 Bft) NO 315 0 min 0 W/m 10,0 C 24,5 C 0,0 km/h (0 Bft)
26/08/2012 19:40 24,5 C 40 % 1020,5 hPa 0,0 mm 0,0 km/h (0 Bft) N 360 0 min 0 W/m 10,0 C 24,5 C 1,4 km/h (1 Bft)
26/08/2012 19:50 24,3 C 40 % 1020,5 hPa 0,0 mm 0,0 km/h (0 Bft) NO 315 0 min 0 W/m 9,8 C 24,3 C 0,0 km/h (0 Bft)
26/08/2012 20:00 23,8 C 41 % 1020,5 hPa 0,0 mm 0,0 km/h (0 Bft) NO 315 0 min 0 W/m 9,7 C 23,8 C 0,0 km/h (0 Bft)
26/08/2012 20:10 23,1 C 42 % 1020,6 hPa 0,0 mm 0,0 km/h (0 Bft) NO 315 0 min 0 W/m 9,5 C 23,1 C 0,0 km/h (0 Bft)
26/08/2012 20:20 22,3 C 44 % 1020,6 hPa 0,0 mm 0,0 km/h (0 Bft) NO 315 0 min 0 W/m 9,5 C 22,3 C 0,0 km/h (0 Bft)
26/08/2012 20:30 21,5 C 45 % 1020,6 hPa 0,0 mm 0,0 km/h (0 Bft) NO 315 0 min 0 W/m 9,1 C 21,5 C 0,0 km/h (0 Bft)
26/08/2012 20:40 20,7 C 46 % 1020,7 hPa 0,0 mm 0,0 km/h (0 Bft) NO 315 0 min 0 W/m 8,7 C 20,7 C 0,0 km/h (0 Bft)
26/08/2012 20:50 19,8 C 47 % 1020,8 hPa 0,0 mm 0,0 km/h (0 Bft) NO 315 0 min 0 W/m 8,2 C 19,8 C 0,0 km/h (0 Bft)
26/08/2012 21:00 19,1 C 49 % 1020,8 hPa 0,0 mm 0,0 km/h (0 Bft) NO 315 0 min 0 W/m 8,1 C 19,1 C 0,0 km/h (0 Bft)
26/08/2012 21:10 18,4 C 51 % 1021,0 hPa 0,0 mm 0,0 km/h (0 Bft) NO 315 0 min 0 W/m 8,1 C 18,4 C 0,0 km/h (0 Bft)
26/08/2012 21:20 17,9 C 52 % 1021,1 hPa 0,0 mm 0,0 km/h (0 Bft) NO 315 0 min 0 W/m 7,9 C 17,9 C 0,0 km/h (0 Bft)
26/08/2012 21:30 17,5 C 53 % 1021,2 hPa 0,0 mm 0,0 km/h (0 Bft) NO 315 0 min 0 W/m 7,8 C 17,5 C 0,0 km/h (0 Bft)
26/08/2012 21:40 17,3 C 54 % 1021,3 hPa 0,0 mm 0,0 km/h (0 Bft) NO 315 0 min 0 W/m 7,9 C 17,3 C 0,0 km/h (0 Bft)
26/08/2012 21:50 16,9 C 56 % 1021,5 hPa 0,0 mm 0,0 km/h (0 Bft) E-NE 67 0 min 0 W/m 8,1 C 16,9 C 0,0 km/h (0 Bft)
26/08/2012 22:00 16,6 C 56 % 1021,5 hPa 0,0 mm 0,0 km/h (0 Bft) E-NE 67 0 min 0 W/m 7,8 C 16,6 C 0,0 km/h (0 Bft)
26/08/2012 22:10 16,1 C 57 % 1021,5 hPa 0,0 mm 0,0 km/h (0 Bft) E-NE 67 0 min 0 W/m 7,6 C 16,1 C 0,0 km/h (0 Bft)
26/08/2012 22:20 15,6 C 58 % 1021,4 hPa 0,0 mm 0,0 km/h (0 Bft) E-NE 67 0 min 0 W/m 7,4 C 15,6 C 0,0 km/h (0 Bft)
26/08/2012 22:30 15,3 C 59 % 1021,4 hPa 0,0 mm 0,0 km/h (0 Bft) E-NE 67 0 min 0 W/m 7,3 C 15,3 C 0,0 km/h (0 Bft)
26/08/2012 22:40 14,9 C 60 % 1021,5 hPa 0,0 mm 0,0 km/h (0 Bft) E-NE 67 0 min 0 W/m 7,2 C 14,9 C 0,0 km/h (0 Bft)
26/08/2012 22:50 14,6 C 61 % 1021,4 hPa 0,0 mm 0,0 km/h (0 Bft) E-NE 67 0 min 0 W/m 7,2 C 14,6 C 0,0 km/h (0 Bft)
26/08/2012 23:00 14,5 C 62 % 1021,5 hPa 0,0 mm 0,0 km/h (0 Bft) E-NE 67 0 min 0 W/m 7,3 C 14,5 C 0,0 km/h (0 Bft)
26/08/2012 23:10 14,6 C 64 % 1021,5 hPa 0,0 mm 0,0 km/h (0 Bft) E-NE 67 0 min 0 W/m 7,9 C 14,6 C 0,0 km/h (0 Bft)
26/08/2012 23:20 14,8 C 65 % 1021,5 hPa 0,0 mm 0,0 km/h (0 Bft) E-SE 112 0 min 0 W/m 8,3 C 14,8 C 0,0 km/h (0 Bft)
_ Min-Heure 07:40 19:10 00:20 - 23:20 - - - - 22:50 07:40 23:20
Minimum _ 11,8 C 39 % 1018,3 hPa - 0,0 km/h (0 Bft) - - - - 7,2 C 11,8 C 0,0 km/h (0 Bft)
_ Max-Heure 18:50 09:00 12:50 23:20 12:10 - - 23:20 23:20 10:00 18:50 12:10
Maximum _ 24,9 C 93 % 1022,5 hPa 0,0 mm 7,6 km/h
O (2 Bft)
- - 0 min 0 W/m 13,7 C 24,9 C 15,5 km/h
O (3 Bft)
Moyenne _ 18,0 C 66 % 1020,8 hPa #0,0 mm 1,8 km/h (1 Bft) SO - #0 min. 0 W/m 10,7 C 18,0 C 3,6 km/h (1 Bft)
Saint Bonnet de Bellac- Haute Vienne - France